TimeCST,TemperatureF,Dew PointF,Humidity,Sea Level PressureIn,VisibilityMPH,Wind Direction,Wind SpeedMPH,Gust SpeedMPH,PrecipitationIn,Events,Conditions,WindDirDegrees,DateUTC
12:53 AM,19.9,14.0,78,30.24,10.0,Calm,Calm,-,N/A,,Clear,0,2013-03-03 06:53:00
1:53 AM,17.1,14.0,88,30.25,10.0,Calm,Calm,-,N/A,,Clear,0,2013-03-03 07:53:00
2:53 AM,18.0,14.0,84,30.23,10.0,Calm,Calm,-,N/A,,Clear,0,2013-03-03 08:53:00
3:53 AM,18.0,14.0,84,30.19,10.0,Calm,Calm,-,N/A,,Partly Cloudy,0,2013-03-03 09:53:00
4:53 AM,18.0,14.0,84,30.19,8.0,Calm,Calm,-,N/A,,Clear,0,2013-03-03 10:53:00
6:53 AM,18.0,14.0,84,30.21,8.0,Calm,Calm,-,N/A,,Clear,0,2013-03-03 12:53:00
7:53 AM,24.1,17.1,75,30.20,10.0,South,3.5,-,N/A,,Clear,170,2013-03-03 13:53:00
8:53 AM,28.0,18.0,66,30.21,10.0,Variable,4.6,-,N/A,,Mostly Cloudy,0,2013-03-03 14:53:00
9:53 AM,30.9,19.0,61,30.19,10.0,South,6.9,-,N/A,,Mostly Cloudy,190,2013-03-03 15:53:00
10:53 AM,34.0,18.0,52,30.17,10.0,South,5.8,-,N/A,,Overcast,180,2013-03-03 16:53:00
11:53 AM,37.0,18.0,46,30.15,10.0,South,6.9,-,N/A,,Mostly Cloudy,180,2013-03-03 17:53:00
12:53 PM,41.0,18.0,40,30.11,10.0,Variable,4.6,-,N/A,,Overcast,0,2013-03-03 18:53:00
1:53 PM,42.1,16.0,35,30.08,10.0,South,8.1,-,N/A,,Mostly Cloudy,180,2013-03-03 19:53:00
2:53 PM,42.1,16.0,35,30.05,10.0,SSE,11.5,-,N/A,,Overcast,160,2013-03-03 20:53:00
3:53 PM,43.0,18.0,37,30.04,10.0,SE,9.2,-,N/A,,Overcast,140,2013-03-03 21:53:00
4:53 PM,43.0,18.0,37,30.01,10.0,SE,9.2,-,N/A,,Scattered Clouds,140,2013-03-03 22:53:00
5:53 PM,42.1,19.0,40,30.01,10.0,SE,5.8,-,N/A,,Clear,130,2013-03-03 23:53:00
6:53 PM,39.0,19.9,46,30.02,10.0,SE,10.4,-,N/A,,Clear,130,2013-03-04 00:53:00
7:53 PM,37.9,21.9,53,30.02,10.0,SE,10.4,16.1,N/A,,Clear,140,2013-03-04 01:53:00
8:53 PM,37.0,23.0,57,30.01,10.0,SE,11.5,16.1,N/A,,Clear,130,2013-03-04 02:53:00
9:53 PM,36.0,24.1,62,30.00,10.0,SE,8.1,-,N/A,,Clear,140,2013-03-04 03:53:00
10:53 PM,36.0,24.1,62,30.00,10.0,SE,5.8,-,N/A,,Clear,140,2013-03-04 04:53:00
11:53 PM,36.0,24.1,62,29.98,10.0,SE,8.1,-,N/A,,Clear,130,2013-03-04 05:53:00